Time,TemperatureF,DewpointF,PressureIn,WindDirection,WindDirectionDegrees,WindSpeedMPH,WindSpeedGustMPH,Humidity,HourlyPrecipIn,Conditions,Clouds,dailyrainin,SoftwareType,DateUTC
2013-08-19 00:00:00,67.9,46.4,29.93,NW,317,0.0,0.0,46,0.00,,---,0.00,VWS V14.01,2013-08-19 07:00:00,
2013-08-19 00:05:00,67.4,47.6,29.93,NW,317,0.0,0.0,49,0.00,,---,0.00,VWS V14.01,2013-08-19 07:05:00,
2013-08-19 00:10:00,66.7,46.4,29.93,NW,317,0.0,0.0,48,0.00,,---,0.00,VWS V14.01,2013-08-19 07:10:00,
2013-08-19 00:15:00,66.2,46.5,29.93,NW,317,0.0,0.0,49,0.00,,---,0.00,VWS V14.01,2013-08-19 07:15:00,
2013-08-19 00:20:00,65.4,45.8,29.93,NW,317,0.0,0.0,49,0.00,,---,0.00,VWS V14.01,2013-08-19 07:20:00,
2013-08-19 00:25:00,65.3,45.7,29.93,NW,317,0.0,0.0,49,0.00,,---,0.00,VWS V14.01,2013-08-19 07:25:00,
2013-08-19 00:30:00,65.8,46.1,29.93,NW,317,0.0,0.0,49,0.00,,---,0.00,VWS V14.01,2013-08-19 07:30:00,
2013-08-19 00:35:00,65.5,46.4,29.93,NW,317,0.0,0.0,50,0.00,,---,0.00,VWS V14.01,2013-08-19 07:35:00,
2013-08-19 00:40:00,64.8,46.8,29.93,NW,317,0.0,0.0,52,0.00,,---,0.00,VWS V14.01,2013-08-19 07:40:00,
2013-08-19 00:45:00,63.4,47.0,29.93,NW,317,0.0,0.0,55,0.00,,---,0.00,VWS V14.01,2013-08-19 07:45:00,
2013-08-19 00:50:00,63.0,47.1,29.93,NW,317,0.0,0.0,56,0.00,,---,0.00,VWS V14.01,2013-08-19 07:50:00,
2013-08-19 00:55:00,62.6,47.2,29.93,NW,317,0.0,0.0,57,0.00,,---,0.00,VWS V14.01,2013-08-19 07:55:00,
2013-08-19 01:00:00,62.1,47.2,29.93,NW,317,0.0,0.0,58,0.00,,---,0.00,VWS V14.01,2013-08-19 08:00:00,
2013-08-19 01:05:00,61.8,46.9,29.93,NW,317,0.0,0.0,58,0.00,,---,0.00,VWS V14.01,2013-08-19 08:05:00,
2013-08-19 01:10:00,60.7,47.6,29.93,North,360,0.0,0.0,62,0.00,,---,0.00,VWS V14.01,2013-08-19 08:10:00,
2013-08-19 01:15:00,60.4,46.9,29.93,North,360,0.0,0.0,61,0.00,,---,0.00,VWS V14.01,2013-08-19 08:15:00,
2013-08-19 01:20:00,60.7,47.2,29.93,North,360,0.0,0.0,61,0.00,,---,0.00,VWS V14.01,2013-08-19 08:20:00,
2013-08-19 01:25:00,61.0,46.6,29.93,NNE,18,0.0,0.0,59,0.00,,---,0.00,VWS V14.01,2013-08-19 08:25:00,
2013-08-19 01:30:00,60.2,47.6,29.93,NNE,18,0.0,0.0,63,0.00,,---,0.00,VWS V14.01,2013-08-19 08:30:00,
2013-08-19 01:35:00,58.4,47.5,29.93,NNE,18,0.0,0.0,67,0.00,,---,0.00,VWS V14.01,2013-08-19 08:35:00,
2013-08-19 01:40:00,58.1,47.2,29.93,NNE,19,0.0,0.0,67,0.00,,---,0.00,VWS V14.01,2013-08-19 08:40:00,
2013-08-19 01:45:00,58.6,46.1,29.93,NNE,22,0.0,0.0,63,0.00,,---,0.00,VWS V14.01,2013-08-19 08:45:00,
2013-08-19 01:50:00,59.0,46.4,29.93,NNE,23,0.0,0.0,63,0.00,,---,0.00,VWS V14.01,2013-08-19 08:50:00,
2013-08-19 01:55:00,58.4,46.7,29.93,NNE,23,0.0,0.0,65,0.00,,---,0.00,VWS V14.01,2013-08-19 08:55:00,
2013-08-19 02:00:00,58.1,46.0,29.93,NNE,30,0.0,0.0,64,0.00,,---,0.00,VWS V14.01,2013-08-19 09:00:00,
2013-08-19 02:05:00,58.7,46.2,29.93,NE,49,4.0,6.0,63,0.00,,---,0.00,VWS V14.01,2013-08-19 09:05:00,
2013-08-19 02:10:00,57.1,46.3,29.93,NE,54,0.0,6.0,67,0.00,,---,0.00,VWS V14.01,2013-08-19 09:10:00,
2013-08-19 02:15:00,56.2,46.2,29.93,NE,52,0.0,0.0,69,0.00,,---,0.00,VWS V14.01,2013-08-19 09:15:00,
2013-08-19 02:20:00,56.4,46.0,29.93,NE,52,0.0,1.0,68,0.00,,---,0.00,VWS V14.01,2013-08-19 09:20:00,
2013-08-19 02:25:00,56.5,45.7,29.93,NE,51,0.0,1.0,67,0.00,,---,0.00,VWS V14.01,2013-08-19 09:25:00,
2013-08-19 02:30:00,56.3,46.3,29.93,NE,51,0.0,0.0,69,0.00,,---,0.00,VWS V14.01,2013-08-19 09:30:00,
2013-08-19 02:35:00,55.7,46.1,29.93,NE,51,0.0,0.0,70,0.00,,---,0.00,VWS V14.01,2013-08-19 09:35:00,
2013-08-19 02:40:00,55.0,46.2,29.93,NE,51,0.0,0.0,72,0.00,,---,0.00,VWS V14.01,2013-08-19 09:40:00,
2013-08-19 02:45:00,54.5,45.7,29.93,NE,51,0.0,0.0,72,0.00,,---,0.00,VWS V14.01,2013-08-19 09:45:00,
2013-08-19 02:50:00,54.2,45.8,29.94,NE,51,0.0,0.0,73,0.00,,---,0.00,VWS V14.01,2013-08-19 09:50:00,
2013-08-19 02:55:00,54.0,45.9,29.94,NE,51,0.0,0.0,74,0.00,,---,0.00,VWS V14.01,2013-08-19 09:55:00,
2013-08-19 03:00:00,53.9,45.8,29.94,NE,51,0.0,0.0,74,0.00,,---,0.00,VWS V14.01,2013-08-19 10:00:00,
2013-08-19 03:04:00,53.8,45.7,29.94,NE,51,0.0,0.0,74,0.00,,---,0.00,VWS V14.01,2013-08-19 10:04:00,
2013-08-19 03:09:00,54.1,46.0,29.94,NE,51,0.0,0.0,74,0.00,,---,0.00,VWS V14.01,2013-08-19 10:09:00,
2013-08-19 03:14:00,54.3,46.2,29.94,NE,51,0.0,0.0,74,0.00,,---,0.00,VWS V14.01,2013-08-19 10:14:00,
2013-08-19 03:15:00,54.3,46.2,29.94,NE,51,0.0,0.0,74,0.00,,---,0.00,VWS V14.01,2013-08-19 10:15:00,
2013-08-19 03:19:00,54.8,46.0,29.94,NE,51,0.0,0.0,72,0.00,,---,0.00,VWS V14.01,2013-08-19 10:19:00,
2013-08-19 03:24:00,55.8,45.4,29.94,NE,51,0.0,0.0,68,0.00,,---,0.00,VWS V14.01,2013-08-19 10:24:00,
2013-08-19 03:29:00,55.6,45.2,29.94,NE,40,3.0,3.0,68,0.00,,---,0.00,VWS V14.01,2013-08-19 10:29:00,
2013-08-19 03:30:00,55.6,45.2,29.93,NE,40,0.0,5.0,68,0.00,,---,0.00,VWS V14.01,2013-08-19 10:30:00,
2013-08-19 03:34:00,55.2,44.8,29.94,NE,34,0.0,4.0,68,0.00,,---,0.00,VWS V14.01,2013-08-19 10:34:00,
2013-08-19 03:39:00,54.7,44.7,29.93,NNE,33,0.0,4.0,69,0.00,,---,0.00,VWS V14.01,2013-08-19 10:39:00,
2013-08-19 03:44:00,54.7,44.4,29.93,NE,34,0.0,0.0,68,0.00,,---,0.00,VWS V14.01,2013-08-19 10:44:00,
2013-08-19 03:45:00,54.7,44.4,29.93,NNE,33,0.0,4.0,68,0.00,,---,0.00,VWS V14.01,2013-08-19 10:45:00,
2013-08-19 03:49:00,54.4,44.5,29.93,NE,34,0.0,0.0,69,0.00,,---,0.00,VWS V14.01,2013-08-19 10:49:00,
2013-08-19 03:54:00,53.5,44.3,29.93,NE,34,0.0,0.0,71,0.00,,---,0.00,VWS V14.01,2013-08-19 10:54:00,
2013-08-19 03:59:00,52.7,44.3,29.93,NNE,33,0.0,0.0,73,0.00,,---,0.00,VWS V14.01,2013-08-19 10:59:00,
2013-08-19 04:00:00,52.7,44.3,29.93,NE,34,0.0,0.0,73,0.00,,---,0.00,VWS V14.01,2013-08-19 11:00:00,
2013-08-19 04:04:00,51.7,44.4,29.93,NE,34,0.0,0.0,76,0.00,,---,0.00,VWS V14.01,2013-08-19 11:04:00,
2013-08-19 04:09:00,51.3,44.3,29.93,NE,34,0.0,0.0,77,0.00,,---,0.00,VWS V14.01,2013-08-19 11:09:00,
2013-08-19 04:14:00,51.2,44.2,29.93,NE,34,0.0,0.0,77,0.00,,---,0.00,VWS V14.01,2013-08-19 11:14:00,
2013-08-19 04:15:00,51.2,44.2,29.93,NE,34,0.0,0.0,77,0.00,,---,0.00,VWS V14.01,2013-08-19 11:15:00,
2013-08-19 04:19:00,51.4,44.1,29.93,NE,34,0.0,0.0,76,0.00,,---,0.00,VWS V14.01,2013-08-19 11:19:00,
2013-08-19 04:24:00,51.6,44.0,29.93,NNE,33,0.0,0.0,75,0.00,,---,0.00,VWS V14.01,2013-08-19 11:24:00,
2013-08-19 04:29:00,51.6,44.0,29.93,NE,34,0.0,0.0,75,0.00,,---,0.00,VWS V14.01,2013-08-19 11:29:00,
2013-08-19 04:30:00,51.6,44.0,29.94,NNE,33,0.0,0.0,75,0.00,,---,0.00,VWS V14.01,2013-08-19 11:30:00,
2013-08-19 04:34:00,51.4,44.1,29.94,NE,34,0.0,0.0,76,0.00,,---,0.00,VWS V14.01,2013-08-19 11:34:00,
2013-08-19 04:39:00,51.3,44.0,29.93,NE,34,0.0,0.0,76,0.00,,---,0.00,VWS V14.01,2013-08-19 11:39:00,
2013-08-19 04:44:00,51.8,43.8,29.94,NNE,33,5.0,6.0,74,0.00,,---,0.00,VWS V14.01,2013-08-19 11:44:00,
2013-08-19 04:45:00,51.8,43.8,29.94,NNE,33,5.0,6.0,74,0.00,,---,0.00,VWS V14.01,2013-08-19 11:45:00,
2013-08-19 04:49:00,52.8,43.7,29.94,NNE,30,3.0,7.0,71,0.00,,---,0.00,VWS V14.01,2013-08-19 11:49:00,
2013-08-19 04:54:00,52.0,43.6,29.94,NNE,31,0.0,7.0,73,0.00,,---,0.00,VWS V14.01,2013-08-19 11:54:00,
2013-08-19 04:59:00,51.6,44.0,29.94,NNE,31,0.0,7.0,75,0.00,,---,0.00,VWS V14.01,2013-08-19 11:59:00,
2013-08-19 05:00:00,51.6,44.0,29.94,NNE,31,0.0,7.0,75,0.00,,---,0.00,VWS V14.01,2013-08-19 12:00:00,
2013-08-19 05:04:00,52.3,43.9,29.94,NNE,30,0.0,0.0,73,0.00,,---,0.00,VWS V14.01,2013-08-19 12:04:00,
2013-08-19 05:09:00,52.2,43.8,29.94,NNE,30,0.0,0.0,73,0.00,,---,0.00,VWS V14.01,2013-08-19 12:09:00,
2013-08-19 05:14:00,51.9,44.2,29.94,NNE,30,0.0,0.0,75,0.00,,---,0.00,VWS V14.01,2013-08-19 12:14:00,
2013-08-19 05:15:00,51.9,44.2,29.94,NNE,30,0.0,0.0,75,0.00,,---,0.00,VWS V14.01,2013-08-19 12:15:00,
2013-08-19 05:19:00,51.5,43.8,29.94,NNE,30,0.0,0.0,75,0.00,,---,0.00,VWS V14.01,2013-08-19 12:19:00,
2013-08-19 05:24:00,50.9,43.6,29.95,NNE,30,0.0,0.0,76,0.00,,---,0.00,VWS V14.01,2013-08-19 12:24:00,
2013-08-19 05:29:00,50.9,43.6,29.94,NNE,30,0.0,0.0,76,0.00,,---,0.00,VWS V14.01,2013-08-19 12:29:00,
2013-08-19 05:30:00,50.8,43.5,29.94,NNE,30,0.0,0.0,76,0.00,,---,0.00,VWS V14.01,2013-08-19 12:30:00,
2013-08-19 05:34:00,50.7,43.8,29.94,NNE,30,0.0,0.0,77,0.00,,---,0.00,VWS V14.01,2013-08-19 12:34:00,
2013-08-19 05:39:00,50.2,42.9,29.95,NNE,30,0.0,0.0,76,0.00,,---,0.00,VWS V14.01,2013-08-19 12:39:00,
2013-08-19 05:44:00,50.7,42.7,29.95,NNE,30,0.0,0.0,74,0.00,,---,0.00,VWS V14.01,2013-08-19 12:44:00,
2013-08-19 05:45:00,50.8,42.8,29.95,NNE,30,0.0,0.0,74,0.00,,---,0.00,VWS V14.01,2013-08-19 12:45:00,
2013-08-19 05:49:00,51.7,43.0,29.95,NNE,30,0.0,0.0,72,0.00,,---,0.00,VWS V14.01,2013-08-19 12:49:00,
2013-08-19 05:54:00,50.8,42.5,29.95,NNE,30,0.0,0.0,73,0.00,,---,0.00,VWS V14.01,2013-08-19 12:54:00,
2013-08-19 05:59:00,49.9,42.3,29.95,NNE,30,0.0,0.0,75,0.00,,---,0.00,VWS V14.01,2013-08-19 12:59:00,
2013-08-19 06:00:00,49.8,42.2,29.95,NNE,30,0.0,0.0,75,0.00,,---,0.00,VWS V14.01,2013-08-19 13:00:00,
2013-08-19 06:04:00,49.6,42.7,29.95,NNE,30,0.0,0.0,77,0.00,,---,0.00,VWS V14.01,2013-08-19 13:04:00,
2013-08-19 06:09:00,49.9,42.7,29.95,NNE,30,0.0,0.0,76,0.00,,---,0.00,VWS V14.01,2013-08-19 13:09:00,
2013-08-19 06:14:00,50.3,43.0,29.95,NNE,30,0.0,0.0,76,0.00,,---,0.00,VWS V14.01,2013-08-19 13:14:00,
2013-08-19 06:15:00,50.2,42.9,29.95,NNE,30,0.0,0.0,76,0.00,,---,0.00,VWS V14.01,2013-08-19 13:15:00,
2013-08-19 06:19:00,50.2,42.9,29.96,NNE,30,0.0,0.0,76,0.00,,---,0.00,VWS V14.01,2013-08-19 13:19:00,
2013-08-19 06:24:00,50.1,42.8,29.95,NNE,30,0.0,0.0,76,0.00,,---,0.00,VWS V14.01,2013-08-19 13:24:00,
2013-08-19 06:29:00,50.2,42.9,29.96,NNE,31,0.0,0.0,76,0.00,,---,0.00,VWS V14.01,2013-08-19 13:29:00,
2013-08-19 06:30:00,50.2,42.9,29.96,NNE,30,0.0,0.0,76,0.00,,---,0.00,VWS V14.01,2013-08-19 13:30:00,
2013-08-19 06:34:00,50.2,42.9,29.96,NNE,30,0.0,0.0,76,0.00,,---,0.00,VWS V14.01,2013-08-19 13:34:00,
2013-08-19 06:39:00,50.0,42.7,29.96,NNE,30,0.0,0.0,76,0.00,,---,0.00,VWS V14.01,2013-08-19 13:39:00,
2013-08-19 06:44:00,49.8,42.9,29.96,NNE,31,0.0,0.0,77,0.00,,---,0.00,VWS V14.01,2013-08-19 13:44:00,
2013-08-19 06:45:00,49.8,42.9,29.96,NNE,31,0.0,0.0,77,0.00,,---,0.00,VWS V14.01,2013-08-19 13:45:00,
2013-08-19 06:49:00,49.9,43.0,29.96,NNE,30,0.0,0.0,77,0.00,,---,0.00,VWS V14.01,2013-08-19 13:49:00,
2013-08-19 06:54:00,50.0,43.1,29.96,NNE,30,0.0,0.0,77,0.00,,---,0.00,VWS V14.01,2013-08-19 13:54:00,
2013-08-19 06:59:00,49.9,43.0,29.96,NNE,30,0.0,0.0,77,0.00,,---,0.00,VWS V14.01,2013-08-19 13:59:00,
2013-08-19 07:00:00,49.9,43.0,29.96,NNE,30,0.0,0.0,77,0.00,,---,0.00,VWS V14.01,2013-08-19 14:00:00,
2013-08-19 07:04:00,49.9,43.3,29.96,NNE,30,0.0,0.0,78,0.00,,---,0.00,VWS V14.01,2013-08-19 14:04:00,
2013-08-19 07:09:00,49.7,43.5,29.96,NNE,30,0.0,0.0,79,0.00,,---,0.00,VWS V14.01,2013-08-19 14:09:00,
2013-08-19 07:14:00,49.9,43.7,29.96,NNE,30,0.0,0.0,79,0.00,,---,0.00,VWS V14.01,2013-08-19 14:14:00,
2013-08-19 07:15:00,50.0,43.8,29.96,NNE,30,0.0,0.0,79,0.00,,---,0.00,VWS V14.01,2013-08-19 14:15:00,
2013-08-19 07:19:00,50.4,43.8,29.96,NNE,31,0.0,0.0,78,0.00,,---,0.00,VWS V14.01,2013-08-19 14:19:00,
2013-08-19 07:24:00,51.1,44.8,29.96,NNE,30,0.0,0.0,79,0.00,,---,0.00,VWS V14.01,2013-08-19 14:24:00,
2013-08-19 07:29:00,51.9,45.6,29.96,NNE,30,0.0,0.0,79,0.00,,---,0.00,VWS V14.01,2013-08-19 14:29:00,
2013-08-19 07:30:00,52.0,45.4,29.96,NNE,30,0.0,0.0,78,0.00,,---,0.00,VWS V14.01,2013-08-19 14:30:00,
2013-08-19 07:34:00,53.5,46.8,29.96,NNE,30,0.0,0.0,78,0.00,,---,0.00,VWS V14.01,2013-08-19 14:34:00,
2013-08-19 07:39:00,54.2,47.2,29.96,NNE,31,0.0,0.0,77,0.00,,---,0.00,VWS V14.01,2013-08-19 14:39:00,
2013-08-19 07:44:00,54.6,47.2,29.97,NNE,30,0.0,0.0,76,0.00,,---,0.00,VWS V14.01,2013-08-19 14:44:00,
2013-08-19 07:45:00,54.6,46.8,29.97,NNE,30,0.0,0.0,75,0.00,,---,0.00,VWS V14.01,2013-08-19 14:45:00,
2013-08-19 07:49:00,54.6,46.8,29.96,NNE,30,0.0,0.0,75,0.00,,---,0.00,VWS V14.01,2013-08-19 14:49:00,
2013-08-19 07:54:00,54.6,47.2,29.96,NNE,30,0.0,0.0,76,0.00,,---,0.00,VWS V14.01,2013-08-19 14:54:00,
2013-08-19 07:59:00,54.9,47.5,29.96,NNE,30,0.0,0.0,76,0.00,,---,0.00,VWS V14.01,2013-08-19 14:59:00,
2013-08-19 08:00:00,54.9,47.1,29.96,NNE,30,0.0,0.0,75,0.00,,---,0.00,VWS V14.01,2013-08-19 15:00:00,
2013-08-19 08:04:00,55.6,47.5,29.96,NNE,30,0.0,0.0,74,0.00,,---,0.00,VWS V14.01,2013-08-19 15:04:00,
2013-08-19 08:09:00,56.7,48.2,29.96,NNE,30,0.0,0.0,73,0.00,,---,0.00,VWS V14.01,2013-08-19 15:09:00,
2013-08-19 08:14:00,57.2,48.6,29.96,NNE,31,0.0,0.0,73,0.00,,---,0.00,VWS V14.01,2013-08-19 15:14:00,
2013-08-19 08:15:00,57.3,48.4,29.96,NNE,31,0.0,0.0,72,0.00,,---,0.00,VWS V14.01,2013-08-19 15:15:00,
2013-08-19 08:19:00,57.7,48.8,29.97,NNE,31,0.0,0.0,72,0.00,,---,0.00,VWS V14.01,2013-08-19 15:19:00,
2013-08-19 08:24:00,58.4,48.7,29.96,NNE,30,0.0,0.0,70,0.00,,---,0.00,VWS V14.01,2013-08-19 15:24:00,
2013-08-19 08:29:00,59.0,48.5,29.96,NNE,30,0.0,0.0,68,0.00,,---,0.00,VWS V14.01,2013-08-19 15:29:00,
2013-08-19 08:30:00,59.0,48.5,29.96,NNE,30,0.0,0.0,68,0.00,,---,0.00,VWS V14.01,2013-08-19 15:30:00,
2013-08-19 08:33:00,60.0,48.6,29.96,NNE,30,0.0,0.0,66,0.00,,---,0.00,VWS V14.01,2013-08-19 15:33:00,
2013-08-19 08:38:00,60.9,47.8,29.96,NNE,30,0.0,0.0,62,0.00,,---,0.00,VWS V14.01,2013-08-19 15:38:00,
2013-08-19 08:43:00,61.8,47.3,29.96,NNE,30,0.0,0.0,59,0.00,,---,0.00,VWS V14.01,2013-08-19 15:43:00,
2013-08-19 08:45:00,61.8,47.3,29.96,NNE,31,0.0,0.0,59,0.00,,---,0.00,VWS V14.01,2013-08-19 15:45:00,
2013-08-19 08:48:00,62.3,47.8,29.96,NNE,31,0.0,0.0,59,0.00,,---,0.00,VWS V14.01,2013-08-19 15:48:00,
2013-08-19 08:53:00,62.6,48.1,29.96,NNE,30,0.0,0.0,59,0.00,,---,0.00,VWS V14.01,2013-08-19 15:53:00,
2013-08-19 08:58:00,62.7,47.3,29.96,NNE,30,0.0,0.0,57,0.00,,---,0.00,VWS V14.01,2013-08-19 15:58:00,
2013-08-19 09:00:00,62.7,46.8,29.96,NNE,30,0.0,0.0,56,0.00,,---,0.00,VWS V14.01,2013-08-19 16:00:00,
2013-08-19 09:03:00,62.6,47.2,29.96,NNE,30,0.0,0.0,57,0.00,,---,0.00,VWS V14.01,2013-08-19 16:03:00,
2013-08-19 09:08:00,63.0,48.5,29.96,NNE,31,0.0,0.0,59,0.00,,---,0.00,VWS V14.01,2013-08-19 16:08:00,
2013-08-19 09:13:00,63.6,49.9,29.96,NNE,31,0.0,0.0,61,0.00,,---,0.00,VWS V14.01,2013-08-19 16:13:00,
2013-08-19 09:15:00,63.7,49.1,29.96,NNE,31,0.0,0.0,59,0.00,,---,0.00,VWS V14.01,2013-08-19 16:15:00,
2013-08-19 09:18:00,64.0,49.4,29.96,NNE,30,0.0,0.0,59,0.00,,---,0.00,VWS V14.01,2013-08-19 16:18:00,
2013-08-19 09:23:00,64.1,50.8,29.96,NNE,30,0.0,0.0,62,0.00,,---,0.00,VWS V14.01,2013-08-19 16:23:00,
2013-08-19 09:28:00,64.7,51.4,29.96,NNE,30,0.0,0.0,62,0.00,,---,0.00,VWS V14.01,2013-08-19 16:28:00,
2013-08-19 09:30:00,64.8,50.6,29.96,NNE,31,0.0,0.0,60,0.00,,---,0.00,VWS V14.01,2013-08-19 16:30:00,
2013-08-19 09:33:00,65.5,51.3,29.96,NNE,31,0.0,0.0,60,0.00,,---,0.00,VWS V14.01,2013-08-19 16:33:00,
2013-08-19 09:38:00,66.5,49.8,29.96,NNE,31,0.0,0.0,55,0.00,,---,0.00,VWS V14.01,2013-08-19 16:38:00,
2013-08-19 09:43:00,66.6,50.0,29.95,NNE,31,0.0,0.0,55,0.00,,---,0.00,VWS V14.01,2013-08-19 16:43:00,
2013-08-19 09:45:00,66.7,50.0,29.95,NNE,30,0.0,0.0,55,0.00,,---,0.00,VWS V14.01,2013-08-19 16:45:00,
2013-08-19 09:48:00,67.3,51.1,29.95,NNE,31,0.0,0.0,56,0.00,,---,0.00,VWS V14.01,2013-08-19 16:48:00,
2013-08-19 09:53:00,67.6,50.4,29.95,NNE,31,0.0,0.0,54,0.00,,---,0.00,VWS V14.01,2013-08-19 16:53:00,
2013-08-19 09:58:00,67.9,51.2,29.95,NNE,30,0.0,0.0,55,0.00,,---,0.00,VWS V14.01,2013-08-19 16:58:00,
2013-08-19 10:00:00,68.0,51.2,29.95,NNE,31,0.0,0.0,55,0.00,,---,0.00,VWS V14.01,2013-08-19 17:00:00,
2013-08-19 10:03:00,68.5,51.2,29.95,NNE,30,0.0,4.0,54,0.00,,---,0.00,VWS V14.01,2013-08-19 17:03:00,
2013-08-19 10:08:00,69.0,51.2,29.94,NNE,30,0.0,4.0,53,0.00,,---,0.00,VWS V14.01,2013-08-19 17:08:00,
2013-08-19 10:13:00,69.5,50.6,29.94,NNE,26,1.0,4.0,51,0.00,,---,0.00,VWS V14.01,2013-08-19 17:13:00,
2013-08-19 10:15:00,69.6,50.7,29.94,NNE,27,0.0,4.0,51,0.00,,---,0.00,VWS V14.01,2013-08-19 17:15:00,
2013-08-19 10:18:00,70.1,51.2,29.94,NNE,26,0.0,0.0,51,0.00,,---,0.00,VWS V14.01,2013-08-19 17:18:00,
2013-08-19 10:23:00,70.7,50.6,29.94,WSW,237,0.0,5.0,49,0.00,,---,0.00,VWS V14.01,2013-08-19 17:23:00,
2013-08-19 10:28:00,71.3,51.7,29.94,WSW,237,0.0,5.0,50,0.00,,---,0.00,VWS V14.01,2013-08-19 17:28:00,
2013-08-19 10:30:00,71.3,51.7,29.94,WSW,237,0.0,5.0,50,0.00,,---,0.00,VWS V14.01,2013-08-19 17:30:00,
2013-08-19 10:33:00,71.7,49.8,29.94,WSW,237,0.0,0.0,46,0.00,,---,0.00,VWS V14.01,2013-08-19 17:33:00,
2013-08-19 10:38:00,72.4,50.5,29.93,WSW,237,0.0,0.0,46,0.00,,---,0.00,VWS V14.01,2013-08-19 17:38:00,
2013-08-19 10:43:00,73.1,50.5,29.94,WSW,237,0.0,2.0,45,0.00,,---,0.00,VWS V14.01,2013-08-19 17:43:00,
2013-08-19 10:45:00,73.3,50.1,29.93,WSW,237,0.0,2.0,44,0.00,,---,0.00,VWS V14.01,2013-08-19 17:45:00,
2013-08-19 10:48:00,74.0,51.9,29.93,WSW,237,0.0,0.0,46,0.00,,---,0.00,VWS V14.01,2013-08-19 17:48:00,
2013-08-19 10:53:00,74.8,52.1,29.93,WSW,237,0.0,2.0,45,0.00,,---,0.00,VWS V14.01,2013-08-19 17:53:00,
2013-08-19 10:58:00,75.3,50.0,29.93,SSE,163,0.0,6.0,41,0.00,,---,0.00,VWS V14.01,2013-08-19 17:58:00,
2013-08-19 11:00:00,75.3,50.0,29.93,SSE,163,0.0,6.0,41,0.00,,---,0.00,VWS V14.01,2013-08-19 18:00:00,
2013-08-19 11:03:00,75.6,51.5,29.93,SSE,163,0.0,0.0,43,0.00,,---,0.00,VWS V14.01,2013-08-19 18:03:00,
2013-08-19 11:08:00,76.2,50.8,29.93,SSE,163,0.0,0.0,41,0.00,,---,0.00,VWS V14.01,2013-08-19 18:08:00,
2013-08-19 11:13:00,76.6,49.8,29.93,SSE,161,1.0,5.0,39,0.00,,---,0.00,VWS V14.01,2013-08-19 18:13:00,
2013-08-19 11:15:00,76.5,50.4,29.93,SSE,161,0.0,5.0,40,0.00,,---,0.00,VWS V14.01,2013-08-19 18:15:00,
2013-08-19 11:18:00,76.9,50.1,29.93,SSE,161,0.0,0.0,39,0.00,,---,0.00,VWS V14.01,2013-08-19 18:18:00,
2013-08-19 11:23:00,77.2,54.8,29.92,SE,138,0.0,2.0,46,0.00,,---,0.00,VWS V14.01,2013-08-19 18:23:00,
2013-08-19 11:28:00,77.7,50.8,29.92,SE,138,0.0,2.0,39,0.00,,---,0.00,VWS V14.01,2013-08-19 18:28:00,
2013-08-19 11:30:00,77.8,50.2,29.92,SE,138,0.0,2.0,38,0.00,,---,0.00,VWS V14.01,2013-08-19 18:30:00,
2013-08-19 11:33:00,78.5,50.1,29.92,SE,138,0.0,5.0,37,0.00,,---,0.00,VWS V14.01,2013-08-19 18:33:00,
2013-08-19 11:38:00,78.9,49.0,29.92,SE,138,0.0,5.0,35,0.00,,---,0.00,VWS V14.01,2013-08-19 18:38:00,
2013-08-19 11:43:00,79.6,50.3,29.92,SE,138,0.0,5.0,36,0.00,,---,0.00,VWS V14.01,2013-08-19 18:43:00,
2013-08-19 11:45:00,79.7,48.9,29.92,SE,139,0.0,5.0,34,0.00,,---,0.00,VWS V14.01,2013-08-19 18:45:00,
2013-08-19 11:48:00,80.3,54.5,29.92,SE,138,0.0,0.0,41,0.00,,---,0.00,VWS V14.01,2013-08-19 18:48:00,
2013-08-19 11:53:00,80.2,49.3,29.92,SE,139,0.0,5.0,34,0.00,,---,0.00,VWS V14.01,2013-08-19 18:53:00,
2013-08-19 11:58:00,79.8,51.2,29.92,SE,139,0.0,6.0,37,0.00,,---,0.00,VWS V14.01,2013-08-19 18:58:00,
2013-08-19 12:00:00,80.0,50.7,29.92,SSE,168,0.0,6.0,36,0.00,,---,0.00,VWS V14.01,2013-08-19 19:00:00,
2013-08-19 12:03:00,80.6,52.7,29.91,SW,215,0.0,7.0,38,0.00,,---,0.00,VWS V14.01,2013-08-19 19:03:00,
2013-08-19 12:08:00,81.1,50.9,29.91,SSW,211,0.0,7.0,35,0.00,,---,0.00,VWS V14.01,2013-08-19 19:08:00,
2013-08-19 12:13:00,81.6,50.5,29.91,SSW,205,0.0,7.0,34,0.00,,---,0.00,VWS V14.01,2013-08-19 19:13:00,
2013-08-19 12:15:00,81.8,52.3,29.91,SSE,155,0.0,7.0,36,0.00,,---,0.00,VWS V14.01,2013-08-19 19:15:00,
2013-08-19 12:18:00,82.0,50.9,29.91,SSE,155,0.0,5.0,34,0.00,,---,0.00,VWS V14.01,2013-08-19 19:18:00,
2013-08-19 12:23:00,82.2,50.3,29.91,SSE,155,0.0,5.0,33,0.00,,---,0.00,VWS V14.01,2013-08-19 19:23:00,
2013-08-19 12:28:00,82.3,50.3,29.91,SSE,156,0.0,7.0,33,0.00,,---,0.00,VWS V14.01,2013-08-19 19:28:00,
2013-08-19 12:30:00,82.4,52.8,29.90,SSE,156,0.0,7.0,36,0.00,,---,0.00,VWS V14.01,2013-08-19 19:30:00,
2013-08-19 12:33:00,82.5,52.1,29.90,SSE,156,0.0,0.0,35,0.00,,---,0.00,VWS V14.01,2013-08-19 19:33:00,
2013-08-19 12:38:00,82.4,51.2,29.90,SSE,156,1.0,6.0,34,0.00,,---,0.00,VWS V14.01,2013-08-19 19:38:00,
2013-08-19 12:43:00,82.4,51.2,29.90,WSW,257,6.0,6.0,34,0.00,,---,0.00,VWS V14.01,2013-08-19 19:43:00,
2013-08-19 12:45:00,82.3,51.2,29.90,South,188,0.0,6.0,34,0.00,,---,0.00,VWS V14.01,2013-08-19 19:45:00,
2013-08-19 12:48:00,82.6,56.5,29.90,SSW,206,0.0,3.0,41,0.00,,---,0.00,VWS V14.01,2013-08-19 19:48:00,
2013-08-19 12:53:00,82.9,53.2,29.90,SSW,198,0.0,6.0,36,0.00,,---,0.00,VWS V14.01,2013-08-19 19:53:00,
2013-08-19 12:58:00,82.6,54.5,29.89,SW,232,5.0,8.0,38,0.00,,---,0.00,VWS V14.01,2013-08-19 19:58:00,
2013-08-19 13:00:00,82.5,52.1,29.89,SW,232,0.0,8.0,35,0.00,,---,0.00,VWS V14.01,2013-08-19 20:00:00,
2013-08-19 13:03:00,82.7,49.9,29.89,SSW,211,0.0,7.0,32,0.00,,---,0.00,VWS V14.01,2013-08-19 20:03:00,
2013-08-19 13:08:00,82.5,49.7,29.89,SW,229,6.0,10.0,32,0.00,,---,0.00,VWS V14.01,2013-08-19 20:08:00,
2013-08-19 13:13:00,82.9,50.0,29.89,WSW,252,0.0,10.0,32,0.00,,---,0.00,VWS V14.01,2013-08-19 20:13:00,
2013-08-19 13:15:00,83.0,51.8,29.89,SW,236,8.0,10.0,34,0.00,,---,0.00,VWS V14.01,2013-08-19 20:15:00,
2013-08-19 13:18:00,83.2,49.5,29.89,SSW,198,6.0,9.0,31,0.00,,---,0.00,VWS V14.01,2013-08-19 20:18:00,
2013-08-19 13:23:00,83.4,52.1,29.89,SW,232,5.0,9.0,34,0.00,,---,0.00,VWS V14.01,2013-08-19 20:23:00,
2013-08-19 13:28:00,83.7,49.0,29.88,WSW,241,4.0,10.0,30,0.00,,---,0.00,VWS V14.01,2013-08-19 20:28:00,
2013-08-19 13:30:00,83.8,54.8,29.88,WSW,237,4.0,10.0,37,0.00,,---,0.00,VWS V14.01,2013-08-19 20:30:00,
2013-08-19 13:33:00,83.8,51.7,29.88,WSW,245,0.0,7.0,33,0.00,,---,0.00,VWS V14.01,2013-08-19 20:33:00,
2013-08-19 13:38:00,84.0,51.0,29.88,WSW,243,7.0,15.0,32,0.00,,---,0.00,VWS V14.01,2013-08-19 20:38:00,
2013-08-19 13:43:00,83.8,51.7,29.88,WSW,253,1.0,15.0,33,0.00,,---,0.00,VWS V14.01,2013-08-19 20:43:00,
2013-08-19 13:45:00,83.8,48.2,29.88,West,269,5.0,15.0,29,0.00,,---,0.00,VWS V14.01,2013-08-19 20:45:00,
2013-08-19 13:48:00,84.2,49.4,29.88,WSW,246,0.0,6.0,30,0.00,,---,0.00,VWS V14.01,2013-08-19 20:48:00,
2013-08-19 13:53:00,84.6,49.8,29.88,WSW,257,6.0,12.0,30,0.00,,---,0.00,VWS V14.01,2013-08-19 20:53:00,
2013-08-19 13:58:00,84.4,49.6,29.88,WSW,257,7.0,13.0,30,0.00,,---,0.00,VWS V14.01,2013-08-19 20:58:00,
2013-08-19 14:00:00,84.3,48.6,29.88,SW,232,0.0,13.0,29,0.00,,---,0.00,VWS V14.01,2013-08-19 21:00:00,
2013-08-19 14:03:00,84.3,50.4,29.88,WSW,240,4.0,9.0,31,0.00,,---,0.00,VWS V14.01,2013-08-19 21:03:00,
2013-08-19 14:08:00,84.9,52.6,29.87,WSW,239,6.0,12.0,33,0.00,,---,0.00,VWS V14.01,2013-08-19 21:08:00,
2013-08-19 14:13:00,84.7,51.6,29.87,WSW,241,6.0,15.0,32,0.00,,---,0.00,VWS V14.01,2013-08-19 21:13:00,
2013-08-19 14:15:00,84.5,52.3,29.87,SW,232,7.0,15.0,33,0.00,,---,0.00,VWS V14.01,2013-08-19 21:15:00,
2013-08-19 14:18:00,84.6,51.5,29.87,WSW,257,8.0,9.0,32,0.00,,---,0.00,VWS V14.01,2013-08-19 21:18:00,
2013-08-19 14:23:00,84.8,49.0,29.87,West,261,6.0,13.0,29,0.00,,---,0.00,VWS V14.01,2013-08-19 21:23:00,
2013-08-19 14:27:00,84.9,50.9,29.87,WSW,253,11.0,17.0,31,0.00,,---,0.00,VWS V14.01,2013-08-19 21:27:00,
2013-08-19 14:30:00,84.7,49.0,29.87,WSW,254,10.0,17.0,29,0.00,,---,0.00,VWS V14.01,2013-08-19 21:30:00,
2013-08-19 14:32:00,84.6,48.9,29.87,West,265,9.0,11.0,29,0.00,,---,0.00,VWS V14.01,2013-08-19 21:32:00,
2013-08-19 14:37:00,84.8,50.8,29.86,WSW,258,0.0,11.0,31,0.00,,---,0.00,VWS V14.01,2013-08-19 21:37:00,
2013-08-19 14:42:00,85.4,52.2,29.86,WSW,250,13.0,13.0,32,0.00,,---,0.00,VWS V14.01,2013-08-19 21:42:00,
2013-08-19 14:45:00,85.3,51.3,29.86,WSW,241,9.0,13.0,31,0.00,,---,0.00,VWS V14.01,2013-08-19 21:45:00,
2013-08-19 14:47:00,85.2,51.2,29.86,WSW,246,4.0,9.0,31,0.00,,---,0.00,VWS V14.01,2013-08-19 21:47:00,
2013-08-19 14:52:00,85.4,50.5,29.86,WSW,250,7.0,11.0,30,0.00,,---,0.00,VWS V14.01,2013-08-19 21:52:00,
2013-08-19 14:57:00,85.7,51.6,29.86,West,271,5.0,12.0,31,0.00,,---,0.00,VWS V14.01,2013-08-19 21:57:00,
2013-08-19 15:00:00,85.7,51.6,29.86,West,261,9.0,12.0,31,0.00,,---,0.00,VWS V14.01,2013-08-19 22:00:00,
2013-08-19 15:02:00,85.6,49.7,29.85,West,259,6.0,12.0,29,0.00,,---,0.00,VWS V14.01,2013-08-19 22:02:00,
2013-08-19 15:07:00,85.5,49.7,29.85,WSW,243,6.0,12.0,29,0.00,,---,0.00,VWS V14.01,2013-08-19 22:07:00,
2013-08-19 15:12:00,85.5,50.6,29.85,WSW,250,5.0,12.0,30,0.00,,---,0.00,VWS V14.01,2013-08-19 22:12:00,
2013-08-19 15:15:00,85.7,49.8,29.85,WSW,254,9.0,12.0,29,0.00,,---,0.00,VWS V14.01,2013-08-19 22:15:00,
2013-08-19 15:17:00,85.7,50.7,29.85,WSW,257,5.0,10.0,30,0.00,,---,0.00,VWS V14.01,2013-08-19 22:17:00,
2013-08-19 15:22:00,86.0,50.1,29.85,WSW,247,5.0,10.0,29,0.00,,---,0.00,VWS V14.01,2013-08-19 22:22:00,
2013-08-19 15:27:00,85.9,51.8,29.85,WSW,240,8.0,13.0,31,0.00,,---,0.00,VWS V14.01,2013-08-19 22:27:00,
2013-08-19 15:30:00,85.7,50.7,29.85,SW,236,5.0,13.0,30,0.00,,---,0.00,VWS V14.01,2013-08-19 22:30:00,
2013-08-19 15:32:00,85.5,49.7,29.84,SSW,205,0.0,10.0,29,0.00,,---,0.00,VWS V14.01,2013-08-19 22:32:00,
2013-08-19 15:37:00,85.5,53.1,29.84,SW,223,8.0,14.0,33,0.00,,---,0.00,VWS V14.01,2013-08-19 22:37:00,
2013-08-19 15:42:00,85.0,53.5,29.84,SW,223,10.0,14.0,34,0.00,,---,0.00,VWS V14.01,2013-08-19 22:42:00,
2013-08-19 15:45:00,85.0,50.1,29.84,SW,221,6.0,14.0,30,0.00,,---,0.00,VWS V14.01,2013-08-19 22:45:00,
2013-08-19 15:47:00,85.1,52.8,29.84,WSW,243,6.0,10.0,33,0.00,,---,0.00,VWS V14.01,2013-08-19 22:47:00,
2013-08-19 15:52:00,85.2,53.7,29.84,WSW,241,8.0,12.0,34,0.00,,---,0.00,VWS V14.01,2013-08-19 22:52:00,
2013-08-19 15:57:00,85.2,52.0,29.84,WSW,242,8.0,14.0,32,0.00,,---,0.00,VWS V14.01,2013-08-19 22:57:00,
2013-08-19 16:00:00,85.7,51.6,29.86,West,261,9.0,12.0,31,0.00,,---,0.00,VWS V14.01,2013-08-19 23:00:00,
2013-08-19 16:02:00,85.6,52.4,29.83,West,259,10.0,10.0,32,0.00,,---,0.00,VWS V14.01,2013-08-19 23:02:00,
2013-08-19 16:07:00,86.0,53.6,29.83,WSW,245,12.0,13.0,33,0.00,,---,0.00,VWS V14.01,2013-08-19 23:07:00,
2013-08-19 16:12:00,85.5,51.4,29.83,WSW,252,7.0,13.0,31,0.00,,---,0.00,VWS V14.01,2013-08-19 23:12:00,
2013-08-19 16:15:00,85.4,53.1,29.83,West,265,6.0,13.0,33,0.00,,---,0.00,VWS V14.01,2013-08-19 23:15:00,
2013-08-19 16:17:00,85.5,50.6,29.83,West,264,4.0,8.0,30,0.00,,---,0.00,VWS V14.01,2013-08-19 23:17:00,
2013-08-19 16:22:00,85.5,51.4,29.83,West,269,6.0,13.0,31,0.00,,---,0.00,VWS V14.01,2013-08-19 23:22:00,
2013-08-19 16:27:00,85.7,51.6,29.83,West,271,6.0,13.0,31,0.00,,---,0.00,VWS V14.01,2013-08-19 23:27:00,
2013-08-19 16:30:00,85.9,50.9,29.83,West,272,0.0,13.0,30,0.00,,---,0.00,VWS V14.01,2013-08-19 23:30:00,
2013-08-19 16:32:00,86.2,52.0,29.83,West,280,5.0,8.0,31,0.00,,---,0.00,VWS V14.01,2013-08-19 23:32:00,
2013-08-19 16:37:00,86.4,53.1,29.83,West,273,8.0,12.0,32,0.00,,---,0.00,VWS V14.01,2013-08-19 23:37:00,
2013-08-19 16:42:00,86.0,51.0,29.83,WSW,256,12.0,12.0,30,0.00,,---,0.00,VWS V14.01,2013-08-19 23:42:00,
2013-08-19 16:45:00,85.9,50.9,29.83,West,273,7.0,12.0,30,0.00,,---,0.00,VWS V14.01,2013-08-19 23:45:00,
2013-08-19 16:47:00,85.9,49.0,29.83,WNW,284,8.0,10.0,28,0.00,,---,0.00,VWS V14.01,2013-08-19 23:47:00,
2013-08-19 16:52:00,86.0,50.1,29.83,WSW,244,5.0,13.0,29,0.00,,---,0.00,VWS V14.01,2013-08-19 23:52:00,
2013-08-19 16:57:00,85.8,51.7,29.82,WSW,242,5.0,13.0,31,0.00,,---,0.00,VWS V14.01,2013-08-19 23:57:00,
2013-08-19 17:00:00,85.7,50.7,29.82,WSW,244,6.0,13.0,30,0.00,,---,0.00,VWS V14.01,2013-08-20 00:00:00,
2013-08-19 17:02:00,85.6,50.7,29.82,WSW,244,3.0,10.0,30,0.00,,---,0.00,VWS V14.01,2013-08-20 00:02:00,
2013-08-19 17:07:00,85.4,51.4,29.82,WSW,245,5.0,10.0,31,0.00,,---,0.00,VWS V14.01,2013-08-20 00:07:00,
2013-08-19 17:12:00,85.4,49.6,29.82,WSW,258,4.0,10.0,29,0.00,,---,0.00,VWS V14.01,2013-08-20 00:12:00,
2013-08-19 17:15:00,85.6,50.7,29.82,West,259,3.0,10.0,30,0.00,,---,0.00,VWS V14.01,2013-08-20 00:15:00,
2013-08-19 17:17:00,85.8,51.7,29.82,West,278,8.0,8.0,31,0.00,,---,0.00,VWS V14.01,2013-08-20 00:17:00,
2013-08-19 17:22:00,85.5,51.4,29.82,SW,229,1.0,12.0,31,0.00,,---,0.00,VWS V14.01,2013-08-20 00:22:00,
2013-08-19 17:27:00,85.3,54.6,29.82,SW,229,0.0,12.0,35,0.00,,---,0.00,VWS V14.01,2013-08-20 00:27:00,
2013-08-19 17:30:00,85.3,53.8,29.82,SW,230,0.0,12.0,34,0.00,,---,0.00,VWS V14.01,2013-08-20 00:30:00,
2013-08-19 17:32:00,85.2,52.9,29.82,WSW,242,6.0,10.0,33,0.00,,---,0.00,VWS V14.01,2013-08-20 00:32:00,
2013-08-19 17:37:00,85.1,52.8,29.81,WSW,257,3.0,10.0,33,0.00,,---,0.00,VWS V14.01,2013-08-20 00:37:00,
2013-08-19 17:42:00,85.4,51.4,29.81,WSW,248,10.0,11.0,31,0.00,,---,0.00,VWS V14.01,2013-08-20 00:42:00,
2013-08-19 17:45:00,85.1,51.1,29.81,WSW,245,10.0,11.0,31,0.00,,---,0.00,VWS V14.01,2013-08-20 00:45:00,
2013-08-19 17:47:00,84.5,52.3,29.81,WSW,237,7.0,11.0,33,0.00,,---,0.00,VWS V14.01,2013-08-20 00:47:00,
2013-08-19 17:52:00,83.8,54.0,29.81,WSW,256,9.0,11.0,36,0.00,,---,0.00,VWS V14.01,2013-08-20 00:52:00,
2013-08-19 17:57:00,84.4,48.7,29.81,West,270,0.0,11.0,29,0.00,,---,0.00,VWS V14.01,2013-08-20 00:57:00,
2013-08-19 18:00:00,84.9,49.1,29.81,West,270,0.0,11.0,29,0.00,,---,0.00,VWS V14.01,2013-08-20 01:00:00,
2013-08-19 18:02:00,85.2,51.2,29.81,West,276,0.0,0.0,31,0.00,,---,0.00,VWS V14.01,2013-08-20 01:02:00,
2013-08-19 18:07:00,85.0,51.9,29.81,WSW,252,3.0,7.0,32,0.00,,---,0.00,VWS V14.01,2013-08-20 01:07:00,
2013-08-19 18:12:00,84.6,52.4,29.81,West,271,4.0,7.0,33,0.00,,---,0.00,VWS V14.01,2013-08-20 01:12:00,
2013-08-19 18:15:00,84.6,51.5,29.81,West,272,5.0,8.0,32,0.00,,---,0.00,VWS V14.01,2013-08-20 01:15:00,
2013-08-19 18:17:00,84.6,53.2,29.81,West,269,4.0,7.0,34,0.00,,---,0.00,VWS V14.01,2013-08-20 01:17:00,
2013-08-19 18:22:00,84.0,53.4,29.81,West,261,4.0,8.0,35,0.00,,---,0.00,VWS V14.01,2013-08-20 01:22:00,
2013-08-19 18:27:00,83.4,52.1,29.81,West,262,6.0,10.0,34,0.00,,---,0.00,VWS V14.01,2013-08-20 01:27:00,
2013-08-19 18:30:00,83.3,52.8,29.81,West,264,7.0,10.0,35,0.00,,---,0.00,VWS V14.01,2013-08-20 01:30:00,
2013-08-19 18:32:00,83.0,51.8,29.81,West,273,9.0,13.0,34,0.00,,---,0.00,VWS V14.01,2013-08-20 01:32:00,
2013-08-19 18:37:00,82.5,52.9,29.80,WNW,296,8.0,13.0,36,0.00,,---,0.00,VWS V14.01,2013-08-20 01:37:00,
2013-08-19 18:42:00,82.1,52.5,29.80,WNW,301,23.0,23.0,36,0.00,,---,0.00,VWS V14.01,2013-08-20 01:42:00,
2013-08-19 18:45:00,82.2,51.8,29.80,WNW,298,14.0,23.0,35,0.00,,---,0.00,VWS V14.01,2013-08-20 01:45:00,
2013-08-19 18:47:00,82.3,51.2,29.81,WNW,290,17.0,20.0,34,0.00,,---,0.00,VWS V14.01,2013-08-20 01:47:00,
2013-08-19 18:52:00,82.1,51.8,29.81,West,281,9.0,20.0,35,0.00,,---,0.00,VWS V14.01,2013-08-20 01:52:00,
2013-08-19 18:57:00,81.4,51.9,29.81,WNW,299,17.0,20.0,36,0.00,,---,0.00,VWS V14.01,2013-08-20 01:57:00,
2013-08-19 19:00:00,81.1,51.7,29.81,WNW,294,18.0,20.0,36,0.00,,---,0.00,VWS V14.01,2013-08-20 02:00:00,
2013-08-19 19:02:00,81.0,51.6,29.81,WNW,296,16.0,24.0,36,0.00,,---,0.00,VWS V14.01,2013-08-20 02:02:00,
2013-08-19 19:07:00,80.4,51.8,29.81,WNW,300,17.0,24.0,37,0.00,,---,0.00,VWS V14.01,2013-08-20 02:07:00,
2013-08-19 19:12:00,79.4,52.3,29.81,WNW,286,11.0,24.0,39,0.00,,---,0.00,VWS V14.01,2013-08-20 02:12:00,
2013-08-19 19:15:00,79.0,52.6,29.81,WNW,288,12.0,24.0,40,0.00,,---,0.00,VWS V14.01,2013-08-20 02:15:00,
2013-08-19 19:17:00,78.7,51.7,29.81,WNW,287,10.0,19.0,39,0.00,,---,0.00,VWS V14.01,2013-08-20 02:17:00,
2013-08-19 19:22:00,78.6,51.6,29.81,WNW,289,12.0,19.0,39,0.00,,---,0.00,VWS V14.01,2013-08-20 02:22:00,
2013-08-19 19:27:00,78.5,51.5,29.82,West,278,9.0,20.0,39,0.00,,---,0.00,VWS V14.01,2013-08-20 02:27:00,
2013-08-19 19:30:00,78.1,51.8,29.81,WNW,290,14.0,20.0,40,0.00,,---,0.00,VWS V14.01,2013-08-20 02:30:00,
2013-08-19 19:32:00,77.8,52.2,29.82,West,280,10.0,16.0,41,0.00,,---,0.00,VWS V14.01,2013-08-20 02:32:00,
2013-08-19 19:37:00,77.1,52.3,29.82,West,278,12.0,18.0,42,0.00,,---,0.00,VWS V14.01,2013-08-20 02:37:00,
2013-08-19 19:42:00,76.9,51.4,29.82,West,276,17.0,22.0,41,0.00,,---,0.00,VWS V14.01,2013-08-20 02:42:00,
2013-08-19 19:45:00,76.6,51.8,29.82,West,269,11.0,22.0,42,0.00,,---,0.00,VWS V14.01,2013-08-20 02:45:00,
2013-08-19 19:47:00,76.3,51.5,29.82,WNW,282,12.0,13.0,42,0.00,,---,0.00,VWS V14.01,2013-08-20 02:47:00,
2013-08-19 19:52:00,76.0,51.9,29.82,WNW,282,10.0,19.0,43,0.00,,---,0.00,VWS V14.01,2013-08-20 02:52:00,
2013-08-19 19:57:00,75.5,51.5,29.83,West,275,9.0,20.0,43,0.00,,---,0.00,VWS V14.01,2013-08-20 02:57:00,
2013-08-19 20:00:00,75.4,51.4,29.83,WNW,284,8.0,20.0,43,0.00,,---,0.00,VWS V14.01,2013-08-20 03:00:00,
2013-08-19 20:02:00,75.3,51.3,29.83,West,272,9.0,17.0,43,0.00,,---,0.00,VWS V14.01,2013-08-20 03:02:00,
2013-08-19 20:07:00,74.7,52.0,29.83,WNW,286,12.0,19.0,45,0.00,,---,0.00,VWS V14.01,2013-08-20 03:07:00,
2013-08-19 20:12:00,74.4,51.7,29.83,WNW,287,6.0,19.0,45,0.00,,---,0.00,VWS V14.01,2013-08-20 03:12:00,
2013-08-19 20:15:00,74.4,51.1,29.83,WNW,291,9.0,20.0,44,0.00,,---,0.00,VWS V14.01,2013-08-20 03:15:00,
2013-08-19 20:16:00,74.5,51.8,29.83,WNW,291,6.0,19.0,45,0.00,,---,0.00,VWS V14.01,2013-08-20 03:16:00,
2013-08-19 20:21:00,74.4,51.7,29.83,West,277,9.0,22.0,45,0.00,,---,0.00,VWS V14.01,2013-08-20 03:21:00,
2013-08-19 20:26:00,74.0,51.3,29.84,West,277,7.0,22.0,45,0.00,,---,0.00,VWS V14.01,2013-08-20 03:26:00,
2013-08-19 20:30:00,73.7,51.7,29.84,WNW,284,10.0,22.0,46,0.00,,---,0.00,VWS V14.01,2013-08-20 03:30:00,
2013-08-19 20:31:00,73.5,51.5,29.84,WNW,292,9.0,13.0,46,0.00,,---,0.00,VWS V14.01,2013-08-20 03:31:00,
2013-08-19 20:36:00,73.0,51.6,29.84,West,277,9.0,16.0,47,0.00,,---,0.00,VWS V14.01,2013-08-20 03:36:00,
2013-08-19 20:41:00,72.6,51.2,29.84,West,278,10.0,18.0,47,0.00,,---,0.00,VWS V14.01,2013-08-20 03:41:00,
2013-08-19 20:45:00,72.3,51.5,29.84,West,281,9.0,18.0,48,0.00,,---,0.00,VWS V14.01,2013-08-20 03:45:00,
2013-08-19 20:46:00,72.1,51.3,29.84,WNW,288,9.0,12.0,48,0.00,,---,0.00,VWS V14.01,2013-08-20 03:46:00,
2013-08-19 20:51:00,71.8,51.1,29.85,WNW,292,11.0,16.0,48,0.00,,---,0.00,VWS V14.01,2013-08-20 03:51:00,
2013-08-19 20:56:00,71.8,51.1,29.85,WNW,296,8.0,17.0,48,0.00,,---,0.00,VWS V14.01,2013-08-20 03:56:00,
2013-08-19 21:00:00,71.7,51.0,29.85,WNW,297,8.0,17.0,48,0.00,,---,0.00,VWS V14.01,2013-08-20 04:00:00,
2013-08-19 21:01:00,71.7,51.0,29.85,WNW,302,9.0,10.0,48,0.00,,---,0.00,VWS V14.01,2013-08-20 04:01:00,
2013-08-19 21:06:00,71.6,50.9,29.85,WNW,300,11.0,17.0,48,0.00,,---,0.00,VWS V14.01,2013-08-20 04:06:00,
2013-08-19 21:11:00,71.6,50.3,29.85,NW,306,15.0,19.0,47,0.00,,---,0.00,VWS V14.01,2013-08-20 04:11:00,
2013-08-19 21:15:00,71.6,50.3,29.85,WNW,292,12.0,19.0,47,0.00,,---,0.00,VWS V14.01,2013-08-20 04:15:00,
2013-08-19 21:16:00,71.5,50.8,29.86,WNW,291,8.0,14.0,48,0.00,,---,0.00,VWS V14.01,2013-08-20 04:16:00,
2013-08-19 21:21:00,71.2,50.5,29.86,West,277,8.0,14.0,48,0.00,,---,0.00,VWS V14.01,2013-08-20 04:21:00,
2013-08-19 21:26:00,70.5,50.4,29.86,West,275,9.0,14.0,49,0.00,,---,0.00,VWS V14.01,2013-08-20 04:26:00,
2013-08-19 21:30:00,70.2,50.2,29.86,WNW,301,6.0,14.0,49,0.00,,---,0.00,VWS V14.01,2013-08-20 04:30:00,
2013-08-19 21:31:00,70.2,50.2,29.86,West,276,6.0,16.0,49,0.00,,---,0.00,VWS V14.01,2013-08-20 04:31:00,
2013-08-19 21:36:00,69.8,50.9,29.86,West,274,7.0,16.0,51,0.00,,---,0.00,VWS V14.01,2013-08-20 04:36:00,
2013-08-19 21:41:00,69.1,50.2,29.86,WNW,287,11.0,18.0,51,0.00,,---,0.00,VWS V14.01,2013-08-20 04:41:00,
2013-08-19 21:45:00,69.3,50.4,29.86,West,260,5.0,18.0,51,0.00,,---,0.00,VWS V14.01,2013-08-20 04:45:00,
2013-08-19 21:46:00,69.2,50.8,29.86,West,275,8.0,10.0,52,0.00,,---,0.00,VWS V14.01,2013-08-20 04:46:00,
2013-08-19 21:51:00,68.6,50.3,29.86,West,267,5.0,14.0,52,0.00,,---,0.00,VWS V14.01,2013-08-20 04:51:00,
2013-08-19 21:56:00,68.4,50.1,29.87,West,269,5.0,14.0,52,0.00,,---,0.00,VWS V14.01,2013-08-20 04:56:00,
2013-08-19 22:00:00,68.3,50.5,29.87,WNW,287,2.0,14.0,53,0.00,,---,0.00,VWS V14.01,2013-08-20 05:00:00,
2013-08-19 22:01:00,68.2,50.4,29.87,West,271,10.0,10.0,53,0.00,,---,0.00,VWS V14.01,2013-08-20 05:01:00,
2013-08-19 22:06:00,68.1,50.3,29.87,West,275,8.0,10.0,53,0.00,,---,0.00,VWS V14.01,2013-08-20 05:06:00,
2013-08-19 22:11:00,67.9,50.2,29.87,SW,229,5.0,13.0,53,0.00,,---,0.00,VWS V14.01,2013-08-20 05:11:00,
2013-08-19 22:15:00,67.7,50.5,29.87,SW,232,5.0,13.0,54,0.00,,---,0.00,VWS V14.01,2013-08-20 05:15:00,
2013-08-19 22:16:00,67.6,50.4,29.87,West,280,5.0,6.0,54,0.00,,---,0.00,VWS V14.01,2013-08-20 05:16:00,
2013-08-19 22:21:00,67.5,49.8,29.88,WNW,303,3.0,10.0,53,0.00,,---,0.00,VWS V14.01,2013-08-20 05:21:00,
2013-08-19 22:26:00,67.5,49.8,29.87,NW,306,0.0,11.0,53,0.00,,---,0.00,VWS V14.01,2013-08-20 05:26:00,
2013-08-19 22:30:00,67.2,49.5,29.88,WNW,295,0.0,11.0,53,0.00,,---,0.00,VWS V14.01,2013-08-20 05:30:00,
2013-08-19 22:31:00,67.1,49.9,29.88,WNW,283,0.0,2.0,54,0.00,,---,0.00,VWS V14.01,2013-08-20 05:31:00,
2013-08-19 22:36:00,66.8,49.6,29.88,West,281,0.0,3.0,54,0.00,,---,0.00,VWS V14.01,2013-08-20 05:36:00,
2013-08-19 22:41:00,66.4,49.8,29.88,West,281,0.0,3.0,55,0.00,,---,0.00,VWS V14.01,2013-08-20 05:41:00,
2013-08-19 22:45:00,66.2,50.1,29.88,West,267,2.0,6.0,56,0.00,,---,0.00,VWS V14.01,2013-08-20 05:45:00,
2013-08-19 22:46:00,66.0,49.9,29.88,West,272,4.0,5.0,56,0.00,,---,0.00,VWS V14.01,2013-08-20 05:46:00,
2013-08-19 22:51:00,65.8,49.7,29.88,West,281,0.0,6.0,56,0.00,,---,0.00,VWS V14.01,2013-08-20 05:51:00,
2013-08-19 22:56:00,65.6,50.0,29.88,West,269,0.0,6.0,57,0.00,,---,0.00,VWS V14.01,2013-08-20 05:56:00,
2013-08-19 23:00:00,65.1,50.0,29.88,WSW,253,4.0,6.0,58,0.00,,---,0.00,VWS V14.01,2013-08-20 06:00:00,
2013-08-19 23:01:00,65.0,49.9,29.88,West,261,0.0,5.0,58,0.00,,---,0.00,VWS V14.01,2013-08-20 06:01:00,
2013-08-19 23:06:00,64.9,49.8,29.88,West,273,8.0,8.0,58,0.00,,---,0.00,VWS V14.01,2013-08-20 06:06:00,
2013-08-19 23:11:00,65.1,50.0,29.88,West,276,7.0,12.0,58,0.00,,---,0.00,VWS V14.01,2013-08-20 06:11:00,
2013-08-19 23:15:00,65.2,49.6,29.88,West,275,6.0,12.0,57,0.00,,---,0.00,VWS V14.01,2013-08-20 06:15:00,
2013-08-19 23:16:00,65.2,49.6,29.88,West,273,9.0,14.0,57,0.00,,---,0.00,VWS V14.01,2013-08-20 06:16:00,
2013-08-19 23:21:00,65.6,49.5,29.88,West,280,4.0,16.0,56,0.00,,---,0.00,VWS V14.01,2013-08-20 06:21:00,
2013-08-19 23:26:00,65.9,49.3,29.88,West,281,3.0,16.0,55,0.00,,---,0.00,VWS V14.01,2013-08-20 06:26:00,
2013-08-19 23:30:00,65.9,49.3,29.88,WNW,300,6.0,16.0,55,0.00,,---,0.00,VWS V14.01,2013-08-20 06:30:00,
2013-08-19 23:31:00,65.8,49.2,29.88,WNW,298,3.0,9.0,55,0.00,,---,0.00,VWS V14.01,2013-08-20 06:31:00,
2013-08-19 23:36:00,65.6,49.0,29.88,West,281,10.0,14.0,55,0.00,,---,0.00,VWS V14.01,2013-08-20 06:36:00,
2013-08-19 23:41:00,65.6,49.0,29.88,WNW,290,12.0,17.0,55,0.00,,---,0.00,VWS V14.01,2013-08-20 06:41:00,
2013-08-19 23:45:00,65.4,49.3,29.89,WNW,297,7.0,17.0,56,0.00,,---,0.00,VWS V14.01,2013-08-20 06:45:00,
2013-08-19 23:46:00,65.3,49.2,29.89,West,271,7.0,10.0,56,0.00,,---,0.00,VWS V14.01,2013-08-20 06:46:00,
2013-08-19 23:51:00,65.0,48.9,29.89,West,264,9.0,10.0,56,0.00,,---,0.00,VWS V14.01,2013-08-20 06:51:00,
2013-08-19 23:56:00,64.8,49.2,29.89,WNW,286,11.0,12.0,57,0.00,,---,0.00,VWS V14.01,2013-08-20 06:56:00,